Weather Roundup
Issued by NWS Springfield, MO

Home | Current Version | Previous Version | Text Only | Print | Product List | Glossary On
Versions: 1 2 3 4 5 6 7 8 9 10 11 12 13 14 15 16 17 18 19 20 21 22 23 24 25 26 27 28 29 30 31 32 33 34 35 36 37 38 39 40 41 42 43 44 45 46 47 48 49 50
000
NZUS99 KSGF 080807
HRRSGF

HOURLY WEATHER
NATIONAL WEATHER SERVICE SPRINGFIELD MO
200 AM CST THU DEC 08 2016

......SGF CWA......

CITY           SKY/WX    TMP DP  RH WIND       PRES   REMARKS
SPRINGFIELD    CLEAR     21  13  71 NW9       30.46R WCI  11
JOPLIN         CLEAR     20  16  84 N8        30.53R WCI  10
WEST PLAINS    CLOUDY    26  19  74 NW8       30.41R WCI  18
ROLLA          CLEAR     20  12  71 W8        30.40R WCI  10
OSAGE BEACH    CLEAR     21  12  68 NW7       30.47R WCI  12
BRANSON        PTCLDY    25  18  74 NW14      30.44R WCI  13

......SURROUNDING SGF CWA......

CITY           SKY/WX    TMP DP  RH WIND       PRES   REMARKS
CHANUTE        CLEAR     19  12  74 NW10      30.53S WCI   7
PARSONS        CLEAR     18  14  84 CALM      30.56R
COFFEYVILLE    CLEAR     21  16  81 N9        30.56R WCI  11
EMPORIA        CLEAR     15  10  80 W8        30.54R WCI   4
GROVE OK       CLOUDY    27  21  80 N7        30.55R WCI  19
ROGERS AR      PTCLDY    23  17  78 N8G20     30.48R WCI  14
SILOAM SPRINGS PTCLDY    25  16  68 N13       30.49R WCI  13
HARRISON AR    CLOUDY    28  24  85 NW9       30.41R WCI  19
NEAR YELLVILLE CLOUDY    32  21  64 NW7       30.40R WCI  26

......KANSAS AND MISSOURI......

CITY           SKY/WX    TMP DP  RH WIND       PRES   REMARKS
KANSAS CTY INT CLEAR     19   6  57 NW13      30.47R WCI   6
DOWNTOWN KC    CLEAR     20   8  60 W8        30.50R WCI  10
COLUMBIA       CLEAR     20  11  68 W8        30.42R WCI  10
SEDALIA        CLEAR     21  11  65 W10       30.46R WCI  10
ST JOSEPH      CLEAR     18   7  62 NW12      30.49R WCI   5
ST LOUIS       CLEAR     25  11  55 W13       30.39R WCI  14
SPIRIT OF STL  CLEAR     24  13  62 W8        30.41R WCI  15
KIRKSVILLE     CLEAR     17   9  70 W9        30.39R WCI   6
WICHITA        CLEAR     19  13  77 NW9       30.57R WCI   8
TOPEKA         CLEAR     19   7  59 W9        30.54R WCI   8
OLATHE         CLEAR     18   7  62 NW9       30.49R WCI   7

......TENNESSEE......

CITY           SKY/WX    TMP DP  RH WIND       PRES   REMARKS
MEMPHIS        CLOUDY    39  22  50 N13G21    30.34R WCI  31
NASHVILLE      CLOUDY    38  21  50 NW13      30.28R WCI  30

......ARKANSAS.......

CITY           SKY/WX    TMP DP  RH WIND       PRES   REMARKS
FAYETTEVILLE   CLOUDY    28  24  85 N8        30.47R WCI  20
FT SMITH       CLOUDY    33  25  72 N14       30.47R WCI  23
LITTLE ROCK    CLOUDY    39  25  57 N10       30.40R WCI  32

......OKLAHOMA.......

CITY           SKY/WX    TMP DP  RH WIND       PRES   REMARKS
TULSA          CLOUDY    24  21  88 N7        30.57R WCI  16
PONCA CITY     CLEAR     22  15  75 N9        30.58R WCI  12
MCALESTER      FLURRIES  31  24  75 N20G29    30.51R WCI  19
OKLAHOMA CITY  CLOUDY    25  19  78 N16       30.56R WCI  12

......IOWA............

CITY           SKY/WX    TMP DP  RH WIND       PRES   REMARKS
DES MOINES     FLURRIES  17   8  67 NW23G31   30.37R WCI  -1
QUAD CITIES    CLOUDY    20  10  65 W20G32    30.27R WCI   4

......ILLINOIS........

CITY           SKY/WX    TMP DP  RH WIND       PRES   REMARKS
QUINCY         CLEAR     20  11  68 W15G23    30.36R WCI   6
CHICAGO        FLURRIES  23  14  68 W21G32    30.14S WCI   8




USA.gov is the U.S. government's official web portal to all federal, state and local government web resources and services.